Weather History for Eugene, OR

Change the Weather History Date:

Saturday, October 6, 2012

  Actual Average Record
Temperature  
Mean Temperature 55 °F 56 °F  
Max Temperature 78 °F 69 °F 86 °F (1952)
Min Temperature 32 °F 43 °F 29 °F (2009)
Degree Days  
Heating Degree Days 10 9  
Month to date heating degree days 39 51  
Since 1 July heating degree days 158 239  
Cooling Degree Days 0 0  
Month to date cooling degree days 0 0  
Year to date cooling degree days 230 238  
Growing Degree Days 5 (Base 50)    
Moisture  
Dew Point 34 °F    
Average Humidity 57    
Maximum Humidity 100    
Minimum Humidity 14    
Precipitation  
Precipitation 0.00 in 0.07 in 0.78 in (1923)
Month to date precipitation 0.00 0.36  
Year to date precipitation 30.86 27.66  
Snow  
Snow 0.00 in - - ()
Month to date snowfall 0.0  
Since 1 July snowfall 0.0  
Since 1 September snowfall 0.0  
Snow Depth 0.00 in    
Sea Level Pressure  
Sea Level Pressure 30.11 in    
Wind  
Wind Speed 5 mph (NNE)    
Max Wind Speed 18 mph    
Max Gust Speed 22 mph    
Visibility 5 miles    
Events Fog    
T = Trace of Precipitation, MM = Missing Value Source: NWS Daily Summary

Daily Weather History Graph

Daily Weather History Graph

Search for Another Location

Airport:

Trip Planner

Search our weather history database for the weather conditions in past years. The results will help you decide how hot, cold, wet, or windy it might be!

Date:

Astronomy

Oct. 06, 2012 Rise Set
Actual Time 7:17 AM PDT 6:43 PM PDT
Civil Twilight 6:48 AM PDT 7:12 PM PDT
Nautical Twilight 6:14 AM PDT 7:45 PM PDT
Astronomical Twilight 5:41 AM PDT 8:19 PM PDT
Moon 10:54 PM PDT (10/6) 1:25 PM PDT (10/6)
Length of Visible Light 12h 24m
Length of Day
11h 26m
Waning Gibbous, 64% of the Moon is Illuminated
Oct 6
Waning Gibbous
Oct 8
Last Quarter
Oct 15
New
Oct 21
First Quarter
Oct 29
Full

Hourly Weather History & Observations

Time (PDT) Temp. Windchill Dew Point Humidity Pressure Visibility Wind Dir Wind Speed Gust Speed Precip Events Conditions
12:54 AM 44.1 °F 41.5 °F 41.0 °F 89% 30.15 in 10.0 mi SSE 4.6 mph - N/A   Clear
1:54 AM 44.1 °F 42.5 °F 39.9 °F 85% 30.15 in 10.0 mi South 3.5 mph - N/A   Clear
2:54 AM 41.0 °F - 39.9 °F 96% 30.15 in 10.0 mi Calm Calm - N/A   Clear
3:54 AM 39.0 °F - 37.0 °F 93% 30.14 in 7.0 mi Calm Calm - N/A   Partly Cloudy
4:03 AM 39.2 °F - 39.2 °F 100% 30.14 in 1.8 mi Calm Calm - N/A   Partly Cloudy
4:05 AM 39.2 °F - 39.2 °F 100% 30.14 in 1.0 mi Calm Calm - N/A   Mist
4:12 AM 37.4 °F - 37.4 °F 100% 30.14 in 0.8 mi Calm Calm - N/A   Mist
4:23 AM 37.4 °F - 37.4 °F 100% 30.14 in 0.2 mi Calm Calm - N/A Fog Fog
4:35 AM 37.4 °F - 37.4 °F 100% 30.14 in 1.0 mi Calm Calm - N/A   Mist
4:47 AM 35.6 °F - 35.6 °F 100% 30.14 in 0.8 mi Calm Calm - N/A   Mist
4:54 AM 37.9 °F - 36.0 °F 93% 30.14 in 0.5 mi Calm Calm - N/A Fog Fog
5:11 AM 37.4 °F - 37.4 °F 100% 30.14 in 1.5 mi Calm Calm - N/A   Mostly Cloudy
5:15 AM 37.4 °F - 37.4 °F 100% 30.14 in 3.0 mi Calm Calm - N/A   Overcast
5:17 AM 37.4 °F - 37.4 °F 100% 30.14 in 1.8 mi Calm Calm - N/A   Overcast
5:19 AM 37.4 °F - 35.6 °F 93% 30.14 in 0.8 mi Calm Calm - N/A   Mist
5:29 AM 35.6 °F - 35.6 °F 100% 30.14 in 0.2 mi Calm Calm - N/A Fog Fog
5:39 AM 37.4 °F - 37.4 °F 100% 30.14 in 0.5 mi Calm Calm - N/A Fog Fog
5:48 AM 35.6 °F - 35.6 °F 100% 30.14 in 0.8 mi Calm Calm - N/A   Mist
5:54 AM 37.0 °F - 36.0 °F 96% 30.14 in 2.0 mi Calm Calm - N/A   Scattered Clouds
6:00 AM 35.6 °F - 35.6 °F 100% 30.14 in 3.0 mi Calm Calm - N/A   Scattered Clouds
6:45 AM 35.6 °F - 33.8 °F 93% 30.14 in 1.5 mi Calm Calm - N/A   Scattered Clouds
6:50 AM 35.6 °F - 33.8 °F 93% 30.14 in 1.2 mi Calm Calm - N/A Fog Mostly Cloudy
6:54 AM 35.6 °F - 33.8 °F 93% 30.14 in 1.2 mi Calm Calm - N/A Fog Mostly Cloudy
7:02 AM 35.6 °F - 33.8 °F 93% 30.14 in 2.0 mi Calm Calm - N/A Fog Mostly Cloudy
7:13 AM 33.8 °F - 33.8 °F 100% 30.14 in 0.5 mi Calm Calm - N/A Fog Fog
7:25 AM 33.8 °F - 33.8 °F 100% 30.14 in 0.2 mi Calm Calm - N/A Fog Fog
7:47 AM 33.8 °F - 33.8 °F 100% 30.14 in 0.5 mi Calm Calm - N/A Fog Fog
7:54 AM 34.0 °F - 34.0 °F 100% 30.14 in 0.5 mi Calm Calm - N/A Fog Fog
8:05 AM 35.6 °F - 35.6 °F 100% 30.14 in 2.0 mi Calm Calm - N/A   Scattered Clouds
8:10 AM 35.6 °F - 35.6 °F 100% 30.14 in 1.0 mi Calm Calm - N/A   Scattered Clouds
8:20 AM 35.6 °F - 35.6 °F 100% 30.14 in 0.2 mi Calm Calm - N/A Fog Fog
8:34 AM 39.2 °F - 39.2 °F 100% 30.14 in 0.2 mi Calm Calm - N/A Fog Fog
8:41 AM 41.0 °F - 41.0 °F 100% 30.14 in 1.0 mi Calm Calm - N/A   Scattered Clouds
8:46 AM 42.8 °F - 42.8 °F 100% 30.14 in 2.0 mi Calm Calm - N/A   Scattered Clouds
8:54 AM 42.1 °F - 42.1 °F 100% 30.14 in 2.0 mi Calm Calm - N/A   Scattered Clouds
9:09 AM 44.6 °F - 42.8 °F 93% 30.14 in 3.0 mi Calm Calm - N/A   Partly Cloudy
9:54 AM 50.0 °F - 44.1 °F 80% 30.14 in 10.0 mi Calm Calm - N/A   Partly Cloudy
10:54 AM 57.0 °F - 35.1 °F 44% 30.13 in 10.0 mi North 5.8 mph - N/A   Clear
11:54 AM 62.1 °F - 30.9 °F 31% 30.12 in 10.0 mi Variable 6.9 mph - N/A   Clear
12:54 PM 66.0 °F - 27.0 °F 23% 30.09 in 10.0 mi North 8.1 mph - N/A   Clear
1:54 PM 70.0 °F - 27.0 °F 20% 30.06 in 10.0 mi North 10.4 mph - N/A   Clear
2:54 PM 75.0 °F - 25.0 °F 16% 30.03 in 10.0 mi North 12.7 mph 17.3 mph N/A   Clear
4:54 PM 77.0 °F - 24.1 °F 14% 29.99 in 10.0 mi North 12.7 mph - N/A   Clear
5:54 PM 75.0 °F - 23.0 °F 14% 29.98 in 10.0 mi North 15.0 mph - N/A   Clear
6:54 PM 66.9 °F - 24.1 °F 20% 29.98 in 10.0 mi North 10.4 mph - N/A   Clear
7:54 PM 60.1 °F - 21.9 °F 23% 29.99 in 10.0 mi NNE 9.2 mph - N/A   Clear
8:54 PM 57.0 °F - 21.0 °F 25% 29.99 in 10.0 mi NNE 5.8 mph - N/A   Clear
9:54 PM 55.9 °F - 25.0 °F 30% 30.00 in 10.0 mi Calm Calm - N/A   Clear
10:54 PM 50.0 °F - 28.0 °F 43% 30.00 in 10.0 mi Calm Calm - N/A   Clear
11:54 PM 44.6 °F - 30.2 °F 57% 30.01 in 10.0 mi Calm Calm - N/A   Clear